Year,Month,Day,Hour,Minute,Value (Times are PST for temperature in C)
2011,01,17,00,00,9.60
2011,01,17,00,01,9.60
2011,01,17,00,02,9.50
2011,01,17,00,03,9.50
2011,01,17,00,04,9.50
2011,01,17,00,05,9.50
2011,01,17,00,06,9.50
2011,01,17,00,07,9.60
2011,01,17,00,08,9.60
2011,01,17,00,09,9.60
2011,01,17,00,10,9.60
2011,01,17,00,11,9.60
2011,01,17,00,12,9.60
2011,01,17,00,13,9.60
2011,01,17,00,14,9.60
2011,01,17,00,15,9.60
2011,01,17,00,16,9.60
2011,01,17,00,17,9.60
2011,01,17,00,18,9.60
2011,01,17,00,19,9.50
2011,01,17,00,20,9.50
2011,01,17,00,21,9.40
2011,01,17,00,22,9.40
2011,01,17,00,23,9.40
2011,01,17,00,24,9.40
2011,01,17,00,25,9.40
2011,01,17,00,26,9.40
2011,01,17,00,27,9.40
2011,01,17,00,28,9.30
2011,01,17,00,29,9.30
2011,01,17,00,30,9.30
2011,01,17,00,31,9.30
2011,01,17,00,32,9.30
2011,01,17,00,33,9.30
2011,01,17,00,34,9.20
2011,01,17,00,35,9.20
2011,01,17,00,36,9.20
2011,01,17,00,37,9.20
2011,01,17,00,38,9.20
2011,01,17,00,39,9.20
2011,01,17,00,40,9.20
2011,01,17,00,41,9.30
2011,01,17,00,42,9.30
2011,01,17,00,43,9.30
2011,01,17,00,44,9.30
2011,01,17,00,45,9.30
2011,01,17,00,46,9.30
2011,01,17,00,47,9.30
2011,01,17,00,48,9.30
2011,01,17,00,49,9.30
2011,01,17,00,50,9.30
2011,01,17,00,51,9.30
2011,01,17,00,52,9.40
2011,01,17,00,53,9.40
2011,01,17,00,54,9.40
2011,01,17,00,55,9.40
2011,01,17,00,56,9.50
2011,01,17,00,57,9.60
2011,01,17,00,58,9.70
2011,01,17,00,59,9.70
2011,01,17,01,00,9.80
2011,01,17,01,01,9.80
2011,01,17,01,02,9.80
2011,01,17,01,03,9.80
2011,01,17,01,04,9.90
2011,01,17,01,05,9.90
2011,01,17,01,06,9.90
2011,01,17,01,07,9.90
2011,01,17,01,08,9.80
2011,01,17,01,09,9.80
2011,01,17,01,10,9.80
2011,01,17,01,11,9.90
2011,01,17,01,12,9.90
2011,01,17,01,13,9.90
2011,01,17,01,14,9.90
2011,01,17,01,15,9.90
2011,01,17,01,16,9.90
2011,01,17,01,17,9.90
2011,01,17,01,18,9.90
2011,01,17,01,19,9.90
2011,01,17,01,20,9.90
2011,01,17,01,21,9.90
2011,01,17,01,22,9.90
2011,01,17,01,23,9.90
2011,01,17,01,24,9.90
2011,01,17,01,25,10.00
2011,01,17,01,26,10.00
2011,01,17,01,27,10.00
2011,01,17,01,28,10.00
2011,01,17,01,29,10.10
2011,01,17,01,30,10.10
2011,01,17,01,31,10.10
2011,01,17,01,32,10.10
2011,01,17,01,33,10.10
2011,01,17,01,34,10.00
2011,01,17,01,35,10.00
2011,01,17,01,36,10.00
2011,01,17,01,37,10.00
2011,01,17,01,38,10.00
2011,01,17,01,39,10.00
2011,01,17,01,40,10.00
2011,01,17,01,41,9.90
2011,01,17,01,42,9.90
2011,01,17,01,43,9.90
2011,01,17,01,44,9.90
2011,01,17,01,45,10.00
2011,01,17,01,46,10.00
2011,01,17,01,47,10.00
2011,01,17,01,48,10.00
2011,01,17,01,49,10.00
2011,01,17,01,50,10.00
2011,01,17,01,51,10.00
2011,01,17,01,52,10.00
2011,01,17,01,53,10.00
2011,01,17,01,54,10.00
2011,01,17,01,55,9.90
2011,01,17,01,56,9.90
2011,01,17,01,57,9.90
2011,01,17,01,58,9.90
2011,01,17,01,59,9.90
2011,01,17,02,00,9.90
2011,01,17,02,01,9.90
2011,01,17,02,02,9.90
2011,01,17,02,03,9.90
2011,01,17,02,04,9.90
2011,01,17,02,05,9.90
2011,01,17,02,06,9.90
2011,01,17,02,07,10.00
2011,01,17,02,08,10.00
2011,01,17,02,09,9.90
2011,01,17,02,10,9.90
2011,01,17,02,11,9.90
2011,01,17,02,12,9.90
2011,01,17,02,13,9.90
2011,01,17,02,14,9.90
2011,01,17,02,15,9.80
2011,01,17,02,16,9.80
2011,01,17,02,17,9.80
2011,01,17,02,18,9.80
2011,01,17,02,19,9.70
2011,01,17,02,20,9.80
2011,01,17,02,21,9.80
2011,01,17,02,22,9.80
2011,01,17,02,23,9.80
2011,01,17,02,24,9.80
2011,01,17,02,25,9.80
2011,01,17,02,26,9.80
2011,01,17,02,27,9.80
2011,01,17,02,28,9.80
2011,01,17,02,29,9.80
2011,01,17,02,30,9.80
2011,01,17,02,31,9.80
2011,01,17,02,32,9.80
2011,01,17,02,33,9.80
2011,01,17,02,34,9.80
2011,01,17,02,35,9.80
2011,01,17,02,36,9.80
2011,01,17,02,37,9.80
2011,01,17,02,38,9.80
2011,01,17,02,39,9.80
2011,01,17,02,40,9.70
2011,01,17,02,41,9.70
2011,01,17,02,42,9.70
2011,01,17,02,43,9.70
2011,01,17,02,44,9.70
2011,01,17,02,45,9.70
2011,01,17,02,46,9.70
2011,01,17,02,47,9.70
2011,01,17,02,48,9.70
2011,01,17,02,49,9.70
2011,01,17,02,50,9.70
2011,01,17,02,51,9.70
2011,01,17,02,52,9.70
2011,01,17,02,53,9.80
2011,01,17,02,54,9.80
2011,01,17,02,55,9.90
2011,01,17,02,56,9.90
2011,01,17,02,57,9.90
2011,01,17,02,58,9.90
2011,01,17,02,59,9.90
2011,01,17,03,00,9.90
2011,01,17,03,01,9.90
2011,01,17,03,02,10.00
2011,01,17,03,03,10.00
2011,01,17,03,04,10.00
2011,01,17,03,05,10.00
2011,01,17,03,06,10.00
2011,01,17,03,07,10.10
2011,01,17,03,08,10.10
2011,01,17,03,09,10.10
2011,01,17,03,10,10.10
2011,01,17,03,11,10.10
2011,01,17,03,12,10.10
2011,01,17,03,13,10.10
2011,01,17,03,14,10.20
2011,01,17,03,15,10.20
2011,01,17,03,16,10.20
2011,01,17,03,17,10.20
2011,01,17,03,18,10.30
2011,01,17,03,19,10.30
2011,01,17,03,20,10.30
2011,01,17,03,21,10.40
2011,01,17,03,22,10.40
2011,01,17,03,23,10.40
2011,01,17,03,24,10.40
2011,01,17,03,25,10.50
2011,01,17,03,26,10.40
2011,01,17,03,27,10.50
2011,01,17,03,28,10.50
2011,01,17,03,29,10.50
2011,01,17,03,30,10.50
2011,01,17,03,31,10.50
2011,01,17,03,32,10.50
2011,01,17,03,33,10.50
2011,01,17,03,34,10.50
2011,01,17,03,35,10.50
2011,01,17,03,36,10.50
2011,01,17,03,37,10.50
2011,01,17,03,38,10.50
2011,01,17,03,39,10.50
2011,01,17,03,40,10.40
2011,01,17,03,41,10.40
2011,01,17,03,42,10.40
2011,01,17,03,43,10.40
2011,01,17,03,44,10.40
2011,01,17,03,45,10.40
2011,01,17,03,46,10.40
2011,01,17,03,47,10.40
2011,01,17,03,48,10.30
2011,01,17,03,49,10.30
2011,01,17,03,50,10.30
2011,01,17,03,51,10.30
2011,01,17,03,52,10.30
2011,01,17,03,53,10.30
2011,01,17,03,54,10.20
2011,01,17,03,55,10.20
2011,01,17,03,56,10.20
2011,01,17,03,57,10.20
2011,01,17,03,58,10.20
2011,01,17,03,59,10.10
2011,01,17,04,00,10.10
2011,01,17,04,01,10.10
2011,01,17,04,02,10.00
2011,01,17,04,03,10.00
2011,01,17,04,04,9.90
2011,01,17,04,05,9.90
2011,01,17,04,06,9.90
2011,01,17,04,07,9.90
2011,01,17,04,08,9.90
2011,01,17,04,09,9.90
2011,01,17,04,10,9.80
2011,01,17,04,11,9.80
2011,01,17,04,12,9.80
2011,01,17,04,13,9.80
2011,01,17,04,14,9.70
2011,01,17,04,15,9.70
2011,01,17,04,16,9.70
2011,01,17,04,17,9.60
2011,01,17,04,18,9.60
2011,01,17,04,19,9.60
2011,01,17,04,20,9.60
2011,01,17,04,21,9.60
2011,01,17,04,22,9.50
2011,01,17,04,23,9.50
2011,01,17,04,24,9.50
2011,01,17,04,25,9.50
2011,01,17,04,26,9.50
2011,01,17,04,27,9.40
2011,01,17,04,28,9.40
2011,01,17,04,29,9.40
2011,01,17,04,30,9.40
2011,01,17,04,31,9.30
2011,01,17,04,32,9.30
2011,01,17,04,33,9.30
2011,01,17,04,34,9.30
2011,01,17,04,35,9.20
2011,01,17,04,36,9.20
2011,01,17,04,37,9.20
2011,01,17,04,38,9.20
2011,01,17,04,39,9.10
2011,01,17,04,40,9.10
2011,01,17,04,41,9.10
2011,01,17,04,42,9.10
2011,01,17,04,43,9.10
2011,01,17,04,44,9.10
2011,01,17,04,45,9.10
2011,01,17,04,46,9.10
2011,01,17,04,47,9.10
2011,01,17,04,48,9.10
2011,01,17,04,49,9.10
2011,01,17,04,50,9.10
2011,01,17,04,51,9.10
2011,01,17,04,52,9.10
2011,01,17,04,53,9.10
2011,01,17,04,54,9.10
2011,01,17,04,55,9.10
2011,01,17,04,56,9.10
2011,01,17,04,57,9.10
2011,01,17,04,58,9.10
2011,01,17,04,59,9.10
2011,01,17,05,00,9.10
2011,01,17,05,01,9.10
2011,01,17,05,02,9.10
2011,01,17,05,03,9.10
2011,01,17,05,04,9.00
2011,01,17,05,05,9.00
2011,01,17,05,06,9.10
2011,01,17,05,07,9.10
2011,01,17,05,08,9.10
2011,01,17,05,09,9.10
2011,01,17,05,10,9.10
2011,01,17,05,11,9.10
2011,01,17,05,12,9.10
2011,01,17,05,13,9.10
2011,01,17,05,14,9.10
2011,01,17,05,15,9.20
2011,01,17,05,16,9.20
2011,01,17,05,17,9.20
2011,01,17,05,18,9.20
2011,01,17,05,19,9.20
2011,01,17,05,20,9.30
2011,01,17,05,21,9.30
2011,01,17,05,22,9.30
2011,01,17,05,23,9.30
2011,01,17,05,24,9.30
2011,01,17,05,25,9.30
2011,01,17,05,26,9.30
2011,01,17,05,27,9.30
2011,01,17,05,28,9.30
2011,01,17,05,29,9.30
2011,01,17,05,30,9.30
2011,01,17,05,31,9.30
2011,01,17,05,32,9.30
2011,01,17,05,33,9.30
2011,01,17,05,34,9.30
2011,01,17,05,35,9.30
2011,01,17,05,36,9.30
2011,01,17,05,37,9.30
2011,01,17,05,38,9.30
2011,01,17,05,39,9.30
2011,01,17,05,40,9.30
2011,01,17,05,41,9.30
2011,01,17,05,42,9.30
2011,01,17,05,43,9.30
2011,01,17,05,44,9.30
2011,01,17,05,45,9.30
2011,01,17,05,46,9.30
2011,01,17,05,47,9.30
2011,01,17,05,48,9.30
2011,01,17,05,49,9.20
2011,01,17,05,50,9.20
2011,01,17,05,51,9.20
2011,01,17,05,52,9.20
2011,01,17,05,53,9.20
2011,01,17,05,54,9.20
2011,01,17,05,55,9.10
2011,01,17,05,56,9.10
2011,01,17,05,57,9.10
2011,01,17,05,58,9.10
2011,01,17,05,59,9.10
2011,01,17,06,00,9.10
2011,01,17,06,01,9.10
2011,01,17,06,02,9.10
2011,01,17,06,03,9.10
2011,01,17,06,04,9.00
2011,01,17,06,05,9.10
2011,01,17,06,06,9.10
2011,01,17,06,07,9.10
2011,01,17,06,08,9.10
2011,01,17,06,09,9.10
2011,01,17,06,10,9.10
2011,01,17,06,11,9.00
2011,01,17,06,12,9.00
2011,01,17,06,13,9.00
2011,01,17,06,14,9.00
2011,01,17,06,15,8.90
2011,01,17,06,16,8.90
2011,01,17,06,17,8.90
2011,01,17,06,18,8.90
2011,01,17,06,19,8.90
2011,01,17,06,20,8.90
2011,01,17,06,21,9.00
2011,01,17,06,22,9.00
2011,01,17,06,23,9.10
2011,01,17,06,24,9.10
2011,01,17,06,25,9.10
2011,01,17,06,26,9.10
2011,01,17,06,27,9.00
2011,01,17,06,28,9.00
2011,01,17,06,29,9.00
2011,01,17,06,30,8.90
2011,01,17,06,31,9.00
2011,01,17,06,32,9.00
2011,01,17,06,33,9.00
2011,01,17,06,34,9.00
2011,01,17,06,35,9.00
2011,01,17,06,36,9.00
2011,01,17,06,37,9.00
2011,01,17,06,38,9.00
2011,01,17,06,39,9.00
2011,01,17,06,40,9.00
2011,01,17,06,41,9.00
2011,01,17,06,42,9.00
2011,01,17,06,43,9.10
2011,01,17,06,44,9.00
2011,01,17,06,45,9.00
2011,01,17,06,46,9.00
2011,01,17,06,47,9.00
2011,01,17,06,48,9.00
2011,01,17,06,49,9.00
2011,01,17,06,50,8.90
2011,01,17,06,51,8.90
2011,01,17,06,52,8.90
2011,01,17,06,53,8.90
2011,01,17,06,54,8.90
2011,01,17,06,55,8.90
2011,01,17,06,56,8.90
2011,01,17,06,57,8.90
2011,01,17,06,58,8.90
2011,01,17,06,59,8.90
2011,01,17,07,00,8.90
2011,01,17,07,01,8.90
2011,01,17,07,02,8.80
2011,01,17,07,03,8.80
2011,01,17,07,04,8.80
2011,01,17,07,05,8.80
2011,01,17,07,06,8.70
2011,01,17,07,07,8.70
2011,01,17,07,08,8.70
2011,01,17,07,09,8.70
2011,01,17,07,10,8.70
2011,01,17,07,11,8.70
2011,01,17,07,12,8.70
2011,01,17,07,13,8.70
2011,01,17,07,14,8.60
2011,01,17,07,15,8.60
2011,01,17,07,16,8.60
2011,01,17,07,17,8.60
2011,01,17,07,18,8.60
2011,01,17,07,19,8.60
2011,01,17,07,20,8.70
2011,01,17,07,21,8.70
2011,01,17,07,22,8.70
2011,01,17,07,23,8.70
2011,01,17,07,24,8.70
2011,01,17,07,25,8.70
2011,01,17,07,26,8.70
2011,01,17,07,27,8.70
2011,01,17,07,28,8.70
2011,01,17,07,29,8.70
2011,01,17,07,30,8.70
2011,01,17,07,31,8.70
2011,01,17,07,32,8.60
2011,01,17,07,33,8.60
2011,01,17,07,34,8.60
2011,01,17,07,35,8.60
2011,01,17,07,36,8.50
2011,01,17,07,37,8.50
2011,01,17,07,38,8.50
2011,01,17,07,39,8.50
2011,01,17,07,40,8.50
2011,01,17,07,41,8.50
2011,01,17,07,42,8.50
2011,01,17,07,43,8.50
2011,01,17,07,44,8.50
2011,01,17,07,45,8.50
2011,01,17,07,46,8.50
2011,01,17,07,47,8.50
2011,01,17,07,48,8.40
2011,01,17,07,49,8.40
2011,01,17,07,50,8.40
2011,01,17,07,51,8.40
2011,01,17,07,52,8.40
2011,01,17,07,53,8.40
2011,01,17,07,54,8.40
2011,01,17,07,55,8.40
2011,01,17,07,56,8.30
2011,01,17,07,57,8.30
2011,01,17,07,58,8.30
2011,01,17,07,59,8.30
2011,01,17,08,00,8.30
2011,01,17,08,01,8.20
2011,01,17,08,02,8.20
2011,01,17,08,03,8.20
2011,01,17,08,04,8.20
2011,01,17,08,05,8.20
2011,01,17,08,06,8.20
2011,01,17,08,07,8.20
2011,01,17,08,08,8.10
2011,01,17,08,09,8.10
2011,01,17,08,10,8.10
2011,01,17,08,11,8.10
2011,01,17,08,12,8.10
2011,01,17,08,13,8.10
2011,01,17,08,14,8.10
2011,01,17,08,15,8.10
2011,01,17,08,16,8.00
2011,01,17,08,17,8.00
2011,01,17,08,18,8.00
2011,01,17,08,19,7.90
2011,01,17,08,20,7.90
2011,01,17,08,21,7.90
2011,01,17,08,22,7.90
2011,01,17,08,23,7.90
2011,01,17,08,24,7.90
2011,01,17,08,25,7.90
2011,01,17,08,26,7.80
2011,01,17,08,27,7.80
2011,01,17,08,28,7.80
2011,01,17,08,29,7.80
2011,01,17,08,30,7.80
2011,01,17,08,31,7.80
2011,01,17,08,32,7.80
2011,01,17,08,33,7.80
2011,01,17,08,34,7.80
2011,01,17,08,35,7.80
2011,01,17,08,36,7.80
2011,01,17,08,37,7.80
2011,01,17,08,38,7.80
2011,01,17,08,39,7.80
2011,01,17,08,40,7.80
2011,01,17,08,41,7.80
2011,01,17,08,42,7.80
2011,01,17,08,43,7.80
2011,01,17,08,44,7.80
2011,01,17,08,45,7.80
2011,01,17,08,46,7.80
2011,01,17,08,47,7.80
2011,01,17,08,48,7.80
2011,01,17,08,49,7.80
2011,01,17,08,50,7.90
2011,01,17,08,51,8.00
2011,01,17,08,52,8.10
2011,01,17,08,53,8.10
2011,01,17,08,54,8.10
2011,01,17,08,55,8.10
2011,01,17,08,56,8.10
2011,01,17,08,57,8.10
2011,01,17,08,58,8.10
2011,01,17,08,59,8.10
2011,01,17,09,00,8.10
2011,01,17,09,01,8.10
2011,01,17,09,02,8.10
2011,01,17,09,03,8.10
2011,01,17,09,04,8.10
2011,01,17,09,05,8.10
2011,01,17,09,06,8.10
2011,01,17,09,07,8.10
2011,01,17,09,08,8.10
2011,01,17,09,09,8.10
2011,01,17,09,10,8.10
2011,01,17,09,11,8.10
2011,01,17,09,12,8.00
2011,01,17,09,13,8.00
2011,01,17,09,14,8.00
2011,01,17,09,15,8.00
2011,01,17,09,16,8.00
2011,01,17,09,17,8.00
2011,01,17,09,18,8.00
2011,01,17,09,19,8.00
2011,01,17,09,20,8.00
2011,01,17,09,21,8.00
2011,01,17,09,22,8.00
2011,01,17,09,23,8.10
2011,01,17,09,24,8.10
2011,01,17,09,25,8.10
2011,01,17,09,26,8.20
2011,01,17,09,27,8.20
2011,01,17,09,28,8.30
2011,01,17,09,29,8.30
2011,01,17,09,30,8.40
2011,01,17,09,31,8.40
2011,01,17,09,32,8.40
2011,01,17,09,33,8.40
2011,01,17,09,34,8.40
2011,01,17,09,35,8.40
2011,01,17,09,36,8.40
2011,01,17,09,37,8.40
2011,01,17,09,38,8.40
2011,01,17,09,39,8.40
2011,01,17,09,40,8.40
2011,01,17,09,41,8.30
2011,01,17,09,42,8.30
2011,01,17,09,43,8.30
2011,01,17,09,44,8.30
2011,01,17,09,45,8.30
2011,01,17,09,46,8.30
2011,01,17,09,47,8.30
2011,01,17,09,48,8.30
2011,01,17,09,49,8.30
2011,01,17,09,50,8.20
2011,01,17,09,51,8.20
2011,01,17,09,52,8.20
2011,01,17,09,53,8.10
2011,01,17,09,54,8.10
2011,01,17,09,55,8.10
2011,01,17,09,56,8.00
2011,01,17,09,57,8.00
2011,01,17,09,58,8.00
2011,01,17,09,59,7.90
2011,01,17,10,00,7.90
2011,01,17,10,01,7.90
2011,01,17,10,02,7.80
2011,01,17,10,03,7.80
2011,01,17,10,04,7.80
2011,01,17,10,05,7.80
2011,01,17,10,06,7.80
2011,01,17,10,07,7.80
2011,01,17,10,08,7.80
2011,01,17,10,09,7.80
2011,01,17,10,10,7.80
2011,01,17,10,11,7.80
2011,01,17,10,12,7.70
2011,01,17,10,13,7.70
2011,01,17,10,14,7.70
2011,01,17,10,15,7.70
2011,01,17,10,16,7.70
2011,01,17,10,17,7.70
2011,01,17,10,18,7.70
2011,01,17,10,19,7.70
2011,01,17,10,20,7.70
2011,01,17,10,21,7.70
2011,01,17,10,22,7.70
2011,01,17,10,23,7.70
2011,01,17,10,24,7.70
2011,01,17,10,25,7.70
2011,01,17,10,26,7.70
2011,01,17,10,27,7.70
2011,01,17,10,28,7.80
2011,01,17,10,29,7.80
2011,01,17,10,30,7.80
2011,01,17,10,31,7.80
2011,01,17,10,32,7.90
2011,01,17,10,33,7.90
2011,01,17,10,34,7.90
2011,01,17,10,35,7.90
2011,01,17,10,36,7.90
2011,01,17,10,37,7.90
2011,01,17,10,38,7.90
2011,01,17,10,39,7.90
2011,01,17,10,40,7.90
2011,01,17,10,41,7.90
2011,01,17,10,42,7.90
2011,01,17,10,43,7.80
2011,01,17,10,44,7.80
2011,01,17,10,45,7.80
2011,01,17,10,46,7.80
2011,01,17,10,47,7.80
2011,01,17,10,48,7.80
2011,01,17,10,49,7.80
2011,01,17,10,50,7.80
2011,01,17,10,51,7.70
2011,01,17,10,52,7.70
2011,01,17,10,53,7.70
2011,01,17,10,54,7.70
2011,01,17,10,55,7.70
2011,01,17,10,56,7.70
2011,01,17,10,57,7.70
2011,01,17,10,58,7.70
2011,01,17,10,59,7.70
2011,01,17,11,00,7.60
2011,01,17,11,01,7.60
2011,01,17,11,02,7.50
2011,01,17,11,03,7.50
2011,01,17,11,04,7.40
2011,01,17,11,05,7.40
2011,01,17,11,06,7.30
2011,01,17,11,07,7.30
2011,01,17,11,08,7.30
2011,01,17,11,09,7.30
2011,01,17,11,10,7.20
2011,01,17,11,11,7.20
2011,01,17,11,12,7.20
2011,01,17,11,13,7.20
2011,01,17,11,14,7.20
2011,01,17,11,15,7.10
2011,01,17,11,16,7.10
2011,01,17,11,17,7.10
2011,01,17,11,18,7.10
2011,01,17,11,19,7.10
2011,01,17,11,20,7.10
2011,01,17,11,21,7.10
2011,01,17,11,22,7.10
2011,01,17,11,23,7.10
2011,01,17,11,24,7.20
2011,01,17,11,25,7.20
2011,01,17,11,26,7.20
2011,01,17,11,27,7.20
2011,01,17,11,28,7.10
2011,01,17,11,29,7.20
2011,01,17,11,30,7.20
2011,01,17,11,31,7.20
2011,01,17,11,32,7.20
2011,01,17,11,33,7.20
2011,01,17,11,34,7.20
2011,01,17,11,35,7.20
2011,01,17,11,36,7.10
2011,01,17,11,37,7.10
2011,01,17,11,38,7.10
2011,01,17,11,39,7.10
2011,01,17,11,40,7.10
2011,01,17,11,41,7.10
2011,01,17,11,42,7.10
2011,01,17,11,43,7.10
2011,01,17,11,44,7.10
2011,01,17,11,45,7.10
2011,01,17,11,46,7.00
2011,01,17,11,47,7.00
2011,01,17,11,48,7.00
2011,01,17,11,49,7.00
2011,01,17,11,50,7.00
2011,01,17,11,51,6.90
2011,01,17,11,52,6.90
2011,01,17,11,53,6.90
2011,01,17,11,54,6.90
2011,01,17,11,55,6.90
2011,01,17,11,56,6.80
2011,01,17,11,57,6.80
2011,01,17,11,58,6.80
2011,01,17,11,59,6.70
2011,01,17,12,00,6.70
2011,01,17,12,01,6.70
2011,01,17,12,02,6.60
2011,01,17,12,03,6.60
2011,01,17,12,04,6.50
2011,01,17,12,05,6.50
2011,01,17,12,06,6.50
2011,01,17,12,07,6.40
2011,01,17,12,08,6.40
2011,01,17,12,09,6.40
2011,01,17,12,10,6.40
2011,01,17,12,11,6.40
2011,01,17,12,12,6.40
2011,01,17,12,13,6.40
2011,01,17,12,14,6.40
2011,01,17,12,15,6.40
2011,01,17,12,16,6.40
2011,01,17,12,17,6.40
2011,01,17,12,18,6.40
2011,01,17,12,19,6.40
2011,01,17,12,20,6.40
2011,01,17,12,21,6.50
2011,01,17,12,22,6.50
2011,01,17,12,23,6.50
2011,01,17,12,24,6.50
2011,01,17,12,25,6.50
2011,01,17,12,26,6.50
2011,01,17,12,27,6.50
2011,01,17,12,28,6.50
2011,01,17,12,29,6.50
2011,01,17,12,30,6.50
2011,01,17,12,31,6.50
2011,01,17,12,32,6.50
2011,01,17,12,33,6.50
2011,01,17,12,34,6.50
2011,01,17,12,35,6.50
2011,01,17,12,36,6.60
2011,01,17,12,37,6.60
2011,01,17,12,38,6.60
2011,01,17,12,39,6.70
2011,01,17,12,40,6.70
2011,01,17,12,41,6.80
2011,01,17,12,42,6.80
2011,01,17,12,43,6.90
2011,01,17,12,44,6.90
2011,01,17,12,45,6.90
2011,01,17,12,46,6.80
2011,01,17,12,47,6.80
2011,01,17,12,48,6.70
2011,01,17,12,49,6.70
2011,01,17,12,50,6.60
2011,01,17,12,51,6.60
2011,01,17,12,52,6.60
2011,01,17,12,53,6.50
2011,01,17,12,54,6.50
2011,01,17,12,55,6.40
2011,01,17,12,56,6.40
2011,01,17,12,57,6.40
2011,01,17,12,58,6.40
2011,01,17,12,59,6.30
2011,01,17,13,00,6.30
2011,01,17,13,01,6.30
2011,01,17,13,02,6.30
2011,01,17,13,03,6.30
2011,01,17,13,04,6.30
2011,01,17,13,05,6.30
2011,01,17,13,06,6.30
2011,01,17,13,07,6.30
2011,01,17,13,08,6.30
2011,01,17,13,09,6.30
2011,01,17,13,10,6.30
2011,01,17,13,11,6.30
2011,01,17,13,12,6.20
2011,01,17,13,13,6.20
2011,01,17,13,14,6.30
2011,01,17,13,15,6.30
2011,01,17,13,16,6.30
2011,01,17,13,17,6.20
2011,01,17,13,18,6.20
2011,01,17,13,19,6.20
2011,01,17,13,20,6.20
2011,01,17,13,21,6.30
2011,01,17,13,22,6.30
2011,01,17,13,23,6.30
2011,01,17,13,24,6.30
2011,01,17,13,25,6.20
2011,01,17,13,26,6.20
2011,01,17,13,27,6.20
2011,01,17,13,28,6.20
2011,01,17,13,29,6.30
2011,01,17,13,30,6.30
2011,01,17,13,31,6.30
2011,01,17,13,32,6.30
2011,01,17,13,33,6.30
2011,01,17,13,34,6.30
2011,01,17,13,35,6.30
2011,01,17,13,36,6.30
2011,01,17,13,37,6.30
2011,01,17,13,38,6.30
2011,01,17,13,39,6.30
2011,01,17,13,40,6.30
2011,01,17,13,41,6.40
2011,01,17,13,42,6.40
2011,01,17,13,43,6.40
2011,01,17,13,44,6.40
2011,01,17,13,45,6.40
2011,01,17,13,46,6.40
2011,01,17,13,47,6.40
2011,01,17,13,48,6.40
2011,01,17,13,49,6.40
2011,01,17,13,50,6.40
2011,01,17,13,51,6.40
2011,01,17,13,52,6.40
2011,01,17,13,53,6.40
2011,01,17,13,54,6.40
2011,01,17,13,55,6.40
2011,01,17,13,56,6.40
2011,01,17,13,57,6.40
2011,01,17,13,58,6.40
2011,01,17,13,59,6.40
2011,01,17,14,00,6.30
2011,01,17,14,01,6.30
2011,01,17,14,02,6.30
2011,01,17,14,03,6.30
2011,01,17,14,04,6.30
2011,01,17,14,05,6.30
2011,01,17,14,06,6.30
2011,01,17,14,07,6.30
2011,01,17,14,08,6.30
2011,01,17,14,09,6.20
2011,01,17,14,10,6.20
2011,01,17,14,11,6.20
2011,01,17,14,12,6.20
2011,01,17,14,13,6.20
2011,01,17,14,14,6.20
2011,01,17,14,15,6.20
2011,01,17,14,16,6.20
2011,01,17,14,17,6.20
2011,01,17,14,18,6.20
2011,01,17,14,19,6.20
2011,01,17,14,20,6.20
2011,01,17,14,21,6.20
2011,01,17,14,22,6.20
2011,01,17,14,23,6.20
2011,01,17,14,24,6.20
2011,01,17,14,25,6.10
2011,01,17,14,26,6.10
2011,01,17,14,27,6.10
2011,01,17,14,28,6.10
2011,01,17,14,29,6.10
2011,01,17,14,30,6.10
2011,01,17,14,31,6.10
2011,01,17,14,32,6.10
2011,01,17,14,33,6.00
2011,01,17,14,34,6.00
2011,01,17,14,35,6.00
2011,01,17,14,36,6.00
2011,01,17,14,37,6.00
2011,01,17,14,38,6.00
2011,01,17,14,39,5.90
2011,01,17,14,40,5.90
2011,01,17,14,41,5.90
2011,01,17,14,42,5.90
2011,01,17,14,43,5.90
2011,01,17,14,44,5.90
2011,01,17,14,45,5.90
2011,01,17,14,46,5.90
2011,01,17,14,47,5.90
2011,01,17,14,48,5.90
2011,01,17,14,49,5.90
2011,01,17,14,50,5.90
2011,01,17,14,51,5.90
2011,01,17,14,52,5.90
2011,01,17,14,53,5.90
2011,01,17,14,54,5.90
2011,01,17,14,55,5.90
2011,01,17,14,56,5.90
2011,01,17,14,57,5.90
2011,01,17,14,58,5.90
2011,01,17,14,59,5.90
2011,01,17,15,00,5.90
2011,01,17,15,01,5.90
2011,01,17,15,02,5.90
2011,01,17,15,03,5.80
2011,01,17,15,04,5.80
2011,01,17,15,05,5.80
2011,01,17,15,06,5.80
2011,01,17,15,07,5.80
2011,01,17,15,08,5.80
2011,01,17,15,09,5.80
2011,01,17,15,10,5.70
2011,01,17,15,11,5.70
2011,01,17,15,12,5.70
2011,01,17,15,13,5.70
2011,01,17,15,14,5.70
2011,01,17,15,15,5.70
2011,01,17,15,16,5.70
2011,01,17,15,17,5.70
2011,01,17,15,18,5.70
2011,01,17,15,19,5.70
2011,01,17,15,20,5.70
2011,01,17,15,21,5.70
2011,01,17,15,22,5.70
2011,01,17,15,23,5.70
2011,01,17,15,24,5.70
2011,01,17,15,25,5.70
2011,01,17,15,26,5.70
2011,01,17,15,27,5.70
2011,01,17,15,28,5.70
2011,01,17,15,29,5.70
2011,01,17,15,30,5.70
2011,01,17,15,31,5.60
2011,01,17,15,32,5.60
2011,01,17,15,33,5.60
2011,01,17,15,34,5.60
2011,01,17,15,35,5.60
2011,01,17,15,36,5.60
2011,01,17,15,37,5.60
2011,01,17,15,38,5.60
2011,01,17,15,39,5.60
2011,01,17,15,40,5.60
2011,01,17,15,41,5.60
2011,01,17,15,42,5.60
2011,01,17,15,43,5.60
2011,01,17,15,44,5.60
2011,01,17,15,45,5.60
2011,01,17,15,46,5.60
2011,01,17,15,47,5.60
2011,01,17,15,48,5.60
2011,01,17,15,49,5.60
2011,01,17,15,50,5.60
2011,01,17,15,51,5.60
2011,01,17,15,52,5.60
2011,01,17,15,53,5.60
2011,01,17,15,54,5.60
2011,01,17,15,55,5.60
2011,01,17,15,56,5.60
2011,01,17,15,57,5.60
2011,01,17,15,58,5.60
2011,01,17,15,59,5.60
2011,01,17,16,00,5.60
2011,01,17,16,01,5.60
2011,01,17,16,02,5.60
2011,01,17,16,03,5.60
2011,01,17,16,04,5.60
2011,01,17,16,05,5.60
2011,01,17,16,06,5.60
2011,01,17,16,07,5.60
2011,01,17,16,08,5.60
2011,01,17,16,09,5.60
2011,01,17,16,10,5.60
2011,01,17,16,11,5.60
2011,01,17,16,12,5.60
2011,01,17,16,13,5.60
2011,01,17,16,14,5.60
2011,01,17,16,15,5.60
2011,01,17,16,16,5.60
2011,01,17,16,17,5.60
2011,01,17,16,18,5.50
2011,01,17,16,19,5.50
2011,01,17,16,20,5.50
2011,01,17,16,21,5.50
2011,01,17,16,22,5.50
2011,01,17,16,23,5.50
2011,01,17,16,24,5.50
2011,01,17,16,25,5.50
2011,01,17,16,26,5.50
2011,01,17,16,27,5.50
2011,01,17,16,28,5.50
2011,01,17,16,29,5.50
2011,01,17,16,30,5.50
2011,01,17,16,31,5.50
2011,01,17,16,32,5.50
2011,01,17,16,33,5.50
2011,01,17,16,34,5.50
2011,01,17,16,35,5.50
2011,01,17,16,36,5.50
2011,01,17,16,37,5.50
2011,01,17,16,38,5.40
2011,01,17,16,39,5.40
2011,01,17,16,40,5.40
2011,01,17,16,41,5.40
2011,01,17,16,42,5.40
2011,01,17,16,43,5.40
2011,01,17,16,44,5.40
2011,01,17,16,45,5.40
2011,01,17,16,46,5.40
2011,01,17,16,47,5.30
2011,01,17,16,48,5.30
2011,01,17,16,49,5.30
2011,01,17,16,50,5.30
2011,01,17,16,51,5.30
2011,01,17,16,52,5.30
2011,01,17,16,53,5.30
2011,01,17,16,54,5.30
2011,01,17,16,55,5.30
2011,01,17,16,56,5.30
2011,01,17,16,57,5.30
2011,01,17,16,58,5.30
2011,01,17,16,59,5.30
2011,01,17,17,00,5.20
2011,01,17,17,01,5.20
2011,01,17,17,02,5.20
2011,01,17,17,03,5.20
2011,01,17,17,04,5.20
2011,01,17,17,05,5.20
2011,01,17,17,06,5.20
2011,01,17,17,07,5.20
2011,01,17,17,08,5.20
2011,01,17,17,09,5.20
2011,01,17,17,10,5.20
2011,01,17,17,11,5.20
2011,01,17,17,12,5.10
2011,01,17,17,13,5.10
2011,01,17,17,14,5.10
2011,01,17,17,15,5.10
2011,01,17,17,16,5.10
2011,01,17,17,17,5.10
2011,01,17,17,18,5.10
2011,01,17,17,19,5.10
2011,01,17,17,20,5.10
2011,01,17,17,21,5.00
2011,01,17,17,22,5.00
2011,01,17,17,23,5.00
2011,01,17,17,24,5.00
2011,01,17,17,25,5.00
2011,01,17,17,26,5.00
2011,01,17,17,27,4.90
2011,01,17,17,28,4.90
2011,01,17,17,29,4.90
2011,01,17,17,30,4.90
2011,01,17,17,31,4.90
2011,01,17,17,32,4.90
2011,01,17,17,33,4.90
2011,01,17,17,34,4.90
2011,01,17,17,35,4.90
2011,01,17,17,36,4.90
2011,01,17,17,37,4.90
2011,01,17,17,38,4.90
2011,01,17,17,39,4.80
2011,01,17,17,40,4.80
2011,01,17,17,41,4.80
2011,01,17,17,42,4.80
2011,01,17,17,43,4.80
2011,01,17,17,44,4.80
2011,01,17,17,45,4.80
2011,01,17,17,46,4.80
2011,01,17,17,47,4.80
2011,01,17,17,48,4.70
2011,01,17,17,49,4.70
2011,01,17,17,50,4.70
2011,01,17,17,51,4.70
2011,01,17,17,52,4.70
2011,01,17,17,53,4.70
2011,01,17,17,54,4.70
2011,01,17,17,55,4.70
2011,01,17,17,56,4.70
2011,01,17,17,57,4.70
2011,01,17,17,58,4.70
2011,01,17,17,59,4.70
2011,01,17,18,00,4.70
2011,01,17,18,01,4.70
2011,01,17,18,02,4.70